Washington, VA

6:07 PM EDT on April 23, 2017 (GMT -0400)
Ronald Reagan Washington National

Weather History for KDCA - February, 2013

Change the Weather History Date:

Saturday, February 16, 2013

  Actual Average Record
Temperature  
Mean Temperature 37 °F 39 °F  
Max Temperature 41 °F 47 °F 75 °F (1954)
Min Temperature 33 °F 31 °F 5 °F (1905)
Degree Days  
Heating Degree Days 28 26  
Month to date heating degree days 428 434  
Since 1 July heating degree days 2501 2814  
Cooling Degree Days 0 0  
Month to date cooling degree days 0 0  
Year to date cooling degree days 0 0  
Moisture  
Dew Point 29 °F    
Average Humidity 68    
Maximum Humidity 92    
Minimum Humidity 43    
Precipitation  
Precipitation 0.02 in 0.10 in 2.14 in (2003)
Month to date precipitation 0.82 1.51  
Year to date precipitation 3.35 4.32  
Snow  
Snow T in 0.20 in 13.30 in (2003)
Month to date snowfall 0.4 3.6  
Since 1 July snowfall 1.5 12.0  
Snow Depth 0.00 in    
Sea Level Pressure  
Sea Level Pressure 29.95 in    
Wind  
Wind Speed 10 mph (North)    
Max Wind Speed 22 mph    
Max Gust Speed 30 mph    
Visibility 10 miles    
Events Rain , Snow    
T = Trace of Precipitation, MM = Missing Value Source: NWS Daily Summary

Daily Weather History Graph

Daily Weather History Graph

Search for Another Location

Airport or City:

Trip Planner

Search our weather history database for the weather conditions in past years. The results will help you decide how hot, cold, wet, or windy it might be!

Date:

Astronomy

Feb. 16, 2013 Rise Set
Actual Time 6:57 AM EST 5:47 PM EST
Civil Twilight 6:30 AM EST 6:14 PM EST
Nautical Twilight 5:59 AM EST 6:45 PM EST
Astronomical Twilight 5:28 AM EST 7:16 PM EST
Moon 10:13 AM EST (2/16) No Moon Set
Length of Visible Light 11h 43m
Length of Day
10h 49m
Waxing Crescent, 39% of the Moon is Illuminated
Feb 16
Waxing Crescent
Feb 17
First Quarter
Feb 25
Full
Mar 4
Last Quarter
Mar 11
New

Hourly Weather History & Observations

Time (EST) Temp. Windchill Dew Point Humidity Pressure Visibility Wind Dir Wind Speed Gust Speed Precip Events Conditions
12:07 AM 37.4 °F 32.1 °F 33.8 °F 87% 30.03 in 7.0 mi East 6.9 mph - 0.01 in Rain , Snow Light Rain
12:52 AM 37.0 °F 34.5 °F 34.0 °F 89% 30.03 in 10.0 mi SE 3.5 mph - 0.02 in   Overcast
1:06 AM 37.4 °F 34.9 °F 33.8 °F 87% 30.02 in 10.0 mi East 3.5 mph - N/A   Overcast
1:15 AM 37.4 °F 33.8 °F 33.8 °F 87% 30.02 in 10.0 mi East 4.6 mph - N/A   Overcast
1:52 AM 37.9 °F - 34.0 °F 86% 30.01 in 10.0 mi Calm Calm - N/A   Overcast
2:29 AM 37.4 °F - 33.8 °F 87% 30.01 in 10.0 mi Calm Calm - N/A   Overcast
2:52 AM 37.0 °F - 34.0 °F 89% 29.99 in 10.0 mi Calm Calm - N/A   Overcast
3:52 AM 37.4 °F - 33.8 °F 87% 29.97 in 10.0 mi Calm Calm - N/A   Overcast
4:52 AM 39.0 °F 36.8 °F 33.1 °F 79% 29.98 in 10.0 mi Variable 3.5 mph - 0.01 in Rain Light Rain
5:52 AM 39.0 °F - 33.1 °F 79% 29.98 in 10.0 mi Calm Calm - 0.00 in   Overcast
6:15 AM 37.4 °F - 33.8 °F 87% 29.98 in 10.0 mi Calm Calm - N/A   Overcast
6:21 AM 39.2 °F - 33.8 °F 81% 29.98 in 10.0 mi Calm Calm - N/A   Overcast
6:52 AM 37.4 °F 32.8 °F 35.6 °F 93% 29.98 in 8.0 mi WNW 5.8 mph - N/A   Overcast
7:09 AM 37.4 °F 30.8 °F 35.6 °F 93% 29.98 in 7.0 mi North 9.2 mph - N/A   Overcast
7:20 AM 37.4 °F 30.8 °F 33.8 °F 87% 29.98 in 9.0 mi NNW 9.2 mph - N/A   Overcast
7:52 AM 37.0 °F 30.4 °F 33.1 °F 86% 29.99 in 10.0 mi NNW 9.2 mph - N/A   Overcast
8:09 AM 37.4 °F 30.8 °F 33.8 °F 87% 29.98 in 10.0 mi North 9.2 mph - N/A   Overcast
8:37 AM 37.4 °F 30.8 °F 33.8 °F 87% 29.98 in 10.0 mi North 9.2 mph - N/A   Overcast
8:46 AM 37.4 °F 30.3 °F 33.8 °F 87% 29.97 in 10.0 mi NNE 10.4 mph - N/A   Overcast
8:52 AM 39.0 °F 32.3 °F 32.0 °F 76% 29.97 in 10.0 mi North 10.4 mph - N/A   Overcast
9:52 AM 39.0 °F 31.4 °F 30.9 °F 73% 29.96 in 10.0 mi NNE 12.7 mph - N/A   Overcast
10:15 AM 39.2 °F 33.0 °F 30.2 °F 70% 29.97 in 10.0 mi North 9.2 mph - N/A   Overcast
10:23 AM 39.2 °F 33.0 °F 30.2 °F 70% 29.97 in 10.0 mi NE 9.2 mph - N/A   Overcast
10:52 AM 39.9 °F 33.9 °F 30.9 °F 70% 29.96 in 10.0 mi NNE 9.2 mph - N/A   Mostly Cloudy
10:54 AM 39.2 °F 33.0 °F 30.2 °F 70% 29.96 in 10.0 mi NNE 9.2 mph - N/A   Overcast
11:16 AM 39.2 °F 33.0 °F 30.2 °F 70% 29.96 in 10.0 mi North 9.2 mph - N/A   Overcast
11:52 AM 39.9 °F 32.9 °F 30.9 °F 70% 29.94 in 10.0 mi North 11.5 mph - N/A   Overcast
12:52 PM 39.9 °F 33.9 °F 30.0 °F 68% 29.91 in 10.0 mi NE 9.2 mph - N/A   Overcast
1:52 PM 39.0 °F 31.4 °F 28.9 °F 67% 29.91 in 10.0 mi North 12.7 mph - N/A   Overcast
1:57 PM 39.2 °F 31.2 °F 28.4 °F 65% 29.91 in 10.0 mi North 13.8 mph - N/A   Overcast
2:52 PM 39.0 °F 32.3 °F 27.0 °F 62% 29.88 in 10.0 mi North 10.4 mph - N/A   Overcast
3:52 PM 37.9 °F 29.6 °F 26.1 °F 62% 29.88 in 10.0 mi North 13.8 mph - N/A   Overcast
4:52 PM 37.9 °F 30.5 °F 25.0 °F 60% 29.88 in 10.0 mi North 11.5 mph - N/A   Overcast
5:52 PM 37.0 °F 28.9 °F 25.0 °F 62% 29.88 in 10.0 mi North 12.7 mph - N/A   Overcast
6:52 PM 37.0 °F 27.0 °F 23.0 °F 57% 29.88 in 10.0 mi NNW 18.4 mph 23.0 mph N/A   Overcast
7:52 PM 36.0 °F 24.4 °F 19.9 °F 52% 29.88 in 10.0 mi North 23.0 mph 28.8 mph N/A   Overcast
8:52 PM 36.0 °F 26.3 °F 17.1 °F 46% 29.88 in 10.0 mi NNW 16.1 mph - N/A   Overcast
9:52 PM 35.1 °F 24.5 °F 16.0 °F 46% 29.87 in 10.0 mi NNW 18.4 mph - N/A   Overcast
10:52 PM 34.0 °F 25.0 °F 14.0 °F 44% 29.86 in 10.0 mi NNW 12.7 mph 24.2 mph N/A   Overcast
11:52 PM 33.1 °F 22.6 °F 15.1 °F 48% 29.85 in 10.0 mi NNW 16.1 mph - N/A   Mostly Cloudy